Bangkok, Thailand

12:21 PM ICT on January 23, 2017 (GMT +0700)
Bangkok

Weather History for 48456 - March, 2004

Change the Weather History Date:

Thursday, March 11, 2004

  Actual Average Record
Temperature  
Mean Temperature 86 °F -  
Max Temperature 95 °F 93 °F - ()
Min Temperature 77 °F 77 °F - ()
Cooling Degree Days 21    
Growing Degree Days 36 (Base 50)    
Moisture  
Dew Point 74 °F    
Average Humidity 68    
Maximum Humidity 94    
Minimum Humidity 49    
Precipitation  
Precipitation 0.00 in 0.05 in - ()
Sea Level Pressure  
Sea Level Pressure 29.78 in    
Wind  
Wind Speed 5 mph ()    
Max Wind Speed 14 mph    
Max Gust Speed -    
Visibility 3.8 miles    
Events      
T = Trace of Precipitation, MM = Missing Value Source: Averaged Metar Reports

Daily Weather History Graph

Daily Weather History Graph

Search for Another Location

Airport or City:

Trip Planner

Search our weather history database for the weather conditions in past years. The results will help you decide how hot, cold, wet, or windy it might be!

Date:

Astronomy

Mar. 11, 2004 Rise Set
Actual Time 6:27 AM ICT 6:27 PM ICT
Civil Twilight 6:06 AM ICT 6:48 PM ICT
Nautical Twilight 5:41 AM ICT 7:13 PM ICT
Astronomical Twilight 5:17 AM ICT 7:38 PM ICT
Moon 10:37 PM ICT (3/11) 9:31 AM ICT (3/11)
Length of Visible Light 12h 42m
Length of Day
11h 59m
Waning Gibbous, 79% of the Moon is Illuminated
Mar 11
Waning Gibbous
Mar 14
Last Quarter
Mar 21
New
Mar 29
First Quarter
Apr 5
Full

Hourly Weather History & Observations

Time (ICT) Temp. Heat Index Dew Point Humidity Pressure Visibility Wind Dir Wind Speed Gust Speed Precip Events Conditions
12:00 AM 84.2 °F 90.9 °F 73.4 °F 70% 29.80 in 3.1 mi South 2.3 mph - N/A   Scattered Clouds
12:30 AM 84.2 °F 90.9 °F 73.4 °F 70% 29.80 in 3.1 mi SSE 2.3 mph - N/A   Scattered Clouds
1:00 AM 82.4 °F 88.2 °F 73.4 °F 74% 29.80 in 4.3 mi South 2.3 mph - N/A   Scattered Clouds
1:30 AM 82.4 °F 87.2 °F 71.6 °F 70% 29.80 in 4.3 mi Calm Calm - N/A   Scattered Clouds
2:00 AM 82.4 °F 88.2 °F 73.4 °F 74% 29.77 in 4.3 mi South 2.3 mph - N/A   Scattered Clouds
2:30 AM 82.4 °F 87.2 °F 71.6 °F 70% 29.77 in 4.3 mi South 2.3 mph - N/A   Scattered Clouds
3:00 AM 82.4 °F 88.2 °F 73.4 °F 74% 29.77 in 4.3 mi South 4.6 mph - N/A   Scattered Clouds
3:30 AM 82.4 °F 87.2 °F 71.6 °F 70% 29.77 in 3.1 mi South 5.8 mph - N/A   Scattered Clouds
4:00 AM 82.4 °F 88.2 °F 73.4 °F 74% 29.77 in 3.1 mi South 5.8 mph - N/A   Scattered Clouds
4:30 AM 80.6 °F 86.2 °F 75.2 °F 84% 29.77 in 2.5 mi SSE 3.5 mph - N/A   Mostly Cloudy
5:00 AM 78.8 °F - 75.2 °F 89% 29.77 in 2.5 mi SE 4.6 mph - N/A   Mostly Cloudy
5:30 AM 78.8 °F - 75.2 °F 89% 29.77 in 1.9 mi SE 3.5 mph - N/A   Mostly Cloudy
6:00 AM 78.8 °F - 75.2 °F 89% 29.77 in 1.9 mi ESE 4.6 mph - N/A   Mostly Cloudy
6:30 AM 77.0 °F - 75.2 °F 94% 29.80 in 0.7 mi ESE 5.8 mph - N/A   Mostly Cloudy
7:00 AM 77.0 °F - 75.2 °F 94% 29.80 in 0.9 mi SE 6.9 mph - N/A   Mostly Cloudy
7:30 AM 78.8 °F - 73.4 °F 83% 29.83 in 0.9 mi SE 5.8 mph - N/A   Mostly Cloudy
8:00 AM 78.8 °F - 73.4 °F 83% 29.83 in 0.9 mi ESE 4.6 mph - N/A   Mostly Cloudy
8:30 AM 80.6 °F 85.4 °F 73.4 °F 79% 29.83 in 0.9 mi SE 4.6 mph - N/A   Mostly Cloudy
9:00 AM 84.2 °F 90.9 °F 73.4 °F 70% 29.83 in 1.2 mi SE 5.8 mph - N/A   Mostly Cloudy
9:30 AM 86.0 °F 95.1 °F 75.2 °F 70% 29.83 in 1.2 mi SSE 6.9 mph - N/A   Scattered Clouds
10:00 AM 89.6 °F 99.8 °F 75.2 °F 62% 29.83 in 1.9 mi South 10.4 mph - N/A   Scattered Clouds
10:30 AM 91.4 °F 102.5 °F 75.2 °F 59% 29.83 in 2.5 mi SSW 9.2 mph - N/A   Mostly Cloudy
11:00 AM 91.4 °F 100.1 °F 73.4 °F 55% 29.83 in 2.5 mi SSE 11.5 mph - N/A   Mostly Cloudy
11:30 AM 93.2 °F 102.4 °F 73.4 °F 52% 29.80 in 3.7 mi South 12.7 mph - N/A   Mostly Cloudy
12:00 PM 93.2 °F 105.0 °F 75.2 °F 56% 29.80 in 3.7 mi SSW 8.1 mph - N/A   Scattered Clouds
12:30 PM 93.2 °F 105.0 °F 75.2 °F 56% 29.77 in 3.7 mi South 9.2 mph - N/A   Mostly Cloudy
1:00 PM 93.2 °F 105.0 °F 75.2 °F 56% 29.77 in 3.7 mi South 11.5 mph - N/A   Mostly Cloudy
1:30 PM 93.2 °F 105.0 °F 75.2 °F 56% 29.74 in 3.7 mi South 10.4 mph - N/A   Mostly Cloudy
2:00 PM 93.2 °F 102.4 °F 73.4 °F 52% 29.74 in 5.0 mi SSW 9.2 mph - N/A   Mostly Cloudy
2:30 PM 93.2 °F 102.4 °F 73.4 °F 52% 29.71 in 5.0 mi South 10.4 mph - N/A   Mostly Cloudy
3:00 PM 95.0 °F 104.5 °F 73.4 °F 49% 29.71 in 6.2 mi South 13.8 mph - N/A   Mostly Cloudy
3:30 PM 93.2 °F 102.4 °F 73.4 °F 52% 29.71 in 6.2 mi SSW 9.2 mph - N/A   Mostly Cloudy
4:00 PM 93.2 °F 102.4 °F 73.4 °F 52% 29.71 in 6.2 mi South 10.4 mph - N/A   Mostly Cloudy
4:30 PM 93.2 °F 100.5 °F 71.6 °F 49% 29.71 in 6.2 mi South 11.5 mph - N/A   Mostly Cloudy
5:00 PM 91.4 °F 98.4 °F 71.6 °F 52% 29.71 in 6.2 mi SSW 9.2 mph - N/A   Mostly Cloudy
5:30 PM 91.4 °F 98.4 °F 71.6 °F 52% 29.71 in 6.2 mi South 10.4 mph - N/A   Mostly Cloudy
6:00 PM 89.6 °F 98.2 °F 73.4 °F 59% 29.71 in 6.2 mi SSW 10.4 mph - N/A   Mostly Cloudy
7:00 PM 89.6 °F 98.2 °F 73.4 °F 59% 29.71 in 6.2 mi South 6.9 mph - N/A   Mostly Cloudy
7:30 PM 87.8 °F 95.6 °F 73.4 °F 62% 29.74 in 6.2 mi South 5.8 mph - N/A   Mostly Cloudy
10:00 PM 84.2 °F 94.1 °F 77.0 °F 79% 29.80 in 6.2 mi SSW 9.2 mph - N/A   Scattered Clouds
10:30 PM 84.2 °F 94.1 °F 77.0 °F 79% 29.83 in 6.2 mi South 9.2 mph - N/A   Scattered Clouds
11:00 PM 84.2 °F 94.1 °F 77.0 °F 79% 29.83 in 6.2 mi SSW 8.1 mph - N/A   Scattered Clouds
11:30 PM 84.2 °F 94.1 °F 77.0 °F 79% 29.83 in 6.2 mi South 9.2 mph - N/A   Scattered Clouds